Flag Weather past 2 weeks in Apeldoorn, Netherlands

Now
43 °F

Passing clouds.


Feels Like: 40 °F
Forecast: 38 / 48 °F
Wind: 5 mph from West

Location: Deelen

Current Time: Nov 24, 2014 at 6:43:27 AM

Latest Report: Nov 24, 2014 at 5:55 AM


Visibility: N/A

Pressure: 30.15 "Hg

Humidity: 100%

Dew point: 43 °F

Location of ApeldoornLocation

Historic Weather in Apeldoorn — Graph

°F

Apeldoorn temperature yesterday

Maximum temperature yesterday: 57 °F (at 12:55 PM)
Minimum temperature yesterday: 46 °F (at 12:25 AM)
Average temperature yesterday: 51 °F

Past Weeks' High & Low Weather Summary

 TemperatureHumidityPressure
High57 °F (Nov 23, 12:55 PM)100% (Nov 10, 2:55 AM)30.33 "Hg (Nov 10, 2:55 AM)
Low36 °F (Nov 21, 4:25 AM)67% (Nov 9, 2:55 PM)29.47 "Hg (Nov 16, 3:25 PM)
Average47 °F92%29.85 "Hg
* Reported Nov 9 5:25 AM — Nov 24 5:55 AM, Apeldoorn, Weather by CustomWeather, © 2014

Note: Actual official high and low records may vary slightly from our data, if they occured in-between our weather recording intervals... More about our weather records

Advertising

Apeldoorn weather history for previous 24 hours

 ConditionsComfort  
Time TempWeatherWind HumidityBarometerVisibility
5:55 AM
Nov 24
43 °FPassing clouds.5 mph100%30.15 "HgN/A
5:25 AM46 °FPartly cloudy.6 mph93%30.12 "HgN/A
4:55 AM46 °FPartly cloudy.6 mph93%30.12 "HgN/A
4:25 AM46 °FPartly cloudy.8 mph100%30.09 "HgN/A
3:55 AM46 °FDrizzle. Mostly cloudy.9 mph100%30.09 "HgN/A
3:25 AM48 °FPartly cloudy.7 mph94%30.07 "HgN/A
2:55 AM48 °FLight rain. Passing clouds.6 mph100%30.04 "HgN/A
2:25 AM48 °FDrizzle. Low clouds.6 mph100%30.04 "Hg6 mi
1:55 AM48 °FPartly cloudy.8 mph100%30.04 "Hg6 mi
1:25 AM48 °FDrizzle. Mostly cloudy.9 mph100%30.01 "Hg4 mi
12:55 AM48 °FDrizzle. Overcast.13 mph100%30.01 "Hg2 mi
12:25 AM50 °FDrizzle. Mostly cloudy.10 mph94%29.98 "HgN/A
11:55 PM
Nov 23
50 °FDrizzle. Mostly cloudy.14 mph94%29.98 "Hg4 mi
11:25 PM52 °FDrizzle. Low clouds.8 mph100%29.95 "Hg2 mi
10:55 PM54 °FOvercast.7 mph88%29.95 "HgN/A
10:25 PM54 °FOvercast.8 mph88%29.95 "HgN/A
9:55 PM52 °FMostly cloudy.7 mph88%29.95 "HgN/A
9:25 PM50 °FMostly cloudy.5 mph94%29.95 "HgN/A
8:55 PM52 °FOvercast.5 mph88%29.92 "HgN/A
8:25 PM52 °FOvercast.5 mph88%29.92 "HgN/A
7:55 PM54 °FOvercast.5 mph82%29.92 "HgN/A
7:25 PM54 °FOvercast.8 mph82%29.92 "HgN/A
6:55 PM52 °FLight rain. Partly cloudy.7 mph88%29.92 "HgN/A
6:25 PM52 °FOvercast.7 mph88%29.92 "HgN/A
5:55 PM52 °FOvercast.8 mph88%29.92 "HgN/A
5:25 PM54 °FOvercast.8 mph82%29.95 "HgN/A
4:55 PM52 °FOvercast.6 mph88%29.95 "HgN/A
4:25 PM54 °FPassing clouds.6 mph82%29.95 "HgN/A
3:55 PM54 °FCool.6 mph82%29.95 "HgN/A
3:25 PM55 °FScattered clouds.8 mph82%29.95 "HgN/A
2:55 PM55 °FCool.10 mph82%29.95 "HgN/A
2:25 PM55 °FPassing clouds.9 mph82%29.98 "HgN/A
1:55 PM57 °FCool.12 mph77%29.98 "HgN/A
1:25 PM57 °FPassing clouds.12 mph77%29.98 "HgN/A
12:55 PM57 °FPassing clouds.8 mph77%30.01 "HgN/A
12:25 PM55 °FPassing clouds.7 mph82%30.01 "HgN/A
11:55 AM55 °FCool.7 mph77%30.01 "HgN/A
11:25 AM54 °FCool.8 mph82%30.04 "HgN/A
10:55 AM52 °FPassing clouds.7 mph88%30.04 "HgN/A
10:25 AM52 °FCool.7 mph82%30.04 "HgN/A
9:55 AM50 °FPassing clouds.5 mph88%30.04 "HgN/A
9:25 AM48 °FFog.8 mph94%30.04 "Hg6 mi
8:55 AM48 °FFog.7 mph94%30.04 "Hg5 mi
8:25 AM46 °FFog.6 mph93%30.04 "Hg5 mi
7:55 AM46 °FFog.9 mph93%30.04 "Hg4 mi
7:25 AM46 °FFog.6 mph93%30.04 "Hg4 mi
6:55 AM48 °FFog.6 mph94%30.04 "Hg6 mi
6:25 AM48 °FFog.5 mph94%30.04 "Hg5 mi
Weather by CustomWeather, © 2014

See weather overviewHow to use our weather pages